This demonstration page uses our WeatherBlox Daily Observations layout. Learn more.

Left ArrowRight Arrow

Hourly Observations for June 9, 2021

Temp ( °F °C ) Dew Point ( °F °C ) Humidity (%) Winds ( mph kmh ) Pressure ( in mb ) Visibility ( mi km ) Precip ( " mm )
12:53 am 00:53 Mostly Cloudy with Light Rain 71 21.7 70 21.1 96 96 N N/A 30.08 1019 9 14 0.00 0.00
1:53 am 01:53 Cloudy with Light Rain 71 21.7 70 21.1 96 96 N N/A 30.08 1019 8 13 0.02 0.51
2:53 am 02:53 Mostly Cloudy with Light Rain 71 21.7 70 21.1 96 96 N N/A 30.07 1018 8 13 0.02 0.51
3:53 am 03:53 Cloudy with Heavy Rain 71 21.7 70 21.1 96 96 VRB 3 6 30.07 1018 3 4 0.11 2.79
4:07 am 04:07 Cloudy with Light Rain 71 21.7 70 21.1 96 96 N N/A 30.06 1018 5 8 0.03 0.76
4:36 am 04:36 Cloudy with Light Rain 70 21.1 69 20.6 97 97 N N/A 30.05 1018 8 13 0.04 1.02
4:53 am 04:53 Cloudy with Mist and Fog 70 21.1 69 20.6 97 97 E 5 7 30.05 1018 6 10 0.04 1.02
5:53 am 05:53 Cloudy 70 21.1 69 20.6 97 97 N N/A 30.04 1017 8 13 0.00 0.00
6:53 am 06:53 Cloudy with Light Rain 70 21.1 69 20.6 97 97 N N/A 30.05 1018 7 11 0.00 0.00
7:53 am 07:53 Cloudy with Rain 70 21.1 70 21.1 100 100 N N/A 30.06 1018 3 4 0.03 0.76
7:58 am 07:58 Cloudy with Heavy Rain 71 21.7 70 21.1 96 96 N N/A 30.05 1018 2 2 0.02 0.51
8:08 am 08:08 Cloudy with Light Rain 70 21.1 70 21.1 100 100 N N/A 30.05 1018 2 3 0.04 1.02
8:12 am 08:12 Cloudy with Light Rain 70 21.1 70 21.1 100 100 N N/A 30.05 1018 3 5 0.05 1.27
8:28 am 08:28 Cloudy with Light Rain 70 21.1 70 21.1 100 100 VRB 5 7 30.05 1018 3 4 0.08 2.03
8:30 am 08:30 Cloudy with Heavy Rain 70 21.1 69 20.6 97 97 VRB 5 7 30.06 1018 2 3 0.09 2.29
8:37 am 08:37 Cloudy with Heavy Rain 70 21.1 69 20.6 97 97 VRB 5 7 30.06 1018 1 1 0.17 4.32
8:46 am 08:46 Cloudy with Light Rain 70 21.1 69 20.6 97 97 VRB 3 6 30.06 1018 2 2 0.20 5.08
8:48 am 08:48 Cloudy with Light Rain 70 21 70 21 100 100 ESE 5 7 30.06 1018 2 3 0.20 5.08
8:51 am 08:51 Cloudy with Light Rain 70 21 70 21 100 100 VRB 5 7 30.06 1018 4 6 0.20 5.08
8:53 am 08:53 Cloudy with Light Rain 70 21.1 69 20.6 97 97 ESE 5 7 30.06 1018 5 8 0.20 5.08
9:01 am 09:01 Cloudy with Light Rain 70 21.1 69 20.6 97 97 E 5 7 30.06 1018 8 13 0.00 0.00
9:53 am 09:53 Cloudy 72 22.2 70 21.1 94 94 E 5 7 30.07 1018 10 16 0.00 0.00
10:09 am 10:09 Cloudy 73 22.8 70 21.1 90 90 VRB 3 6 30.07 1018 9 14 N/A
10:30 am 10:30 Cloudy with Light Rain 73 22.8 70 21.1 90 90 ESE 6 9 30.07 1018 9 14 0.00 0.00
10:53 am 10:53 Cloudy with Light Rain 72 22.2 70 21.1 94 94 ESE 6 9 30.08 1019 7 11 0.00 0.00
11:26 am 11:26 Cloudy 72 22.2 70 21.1 94 94 E 5 7 30.07 1018 9 14 0.00 0.00
11:53 am 11:53 Cloudy with Mist and Fog 72 22.2 70 21.1 94 94 N N/A 30.08 1019 5 8 0.01 0.25
12:05 pm 12:05 Cloudy with Light Rain 72 22.2 70 21.1 94 94 VRB 3 6 30.07 1018 7 11 0.00 0.00
12:28 pm 12:28 Cloudy with Light Rain 72 22.2 70 21.1 94 94 N N/A 30.07 1018 2 3 0.01 0.25
12:35 pm 12:35 Cloudy with Light Rain 72 22.2 70 21.1 94 94 VRB 3 6 30.07 1018 3 5 0.01 0.25
12:53 pm 12:53 Cloudy 72 22.2 70 21.1 94 94 N N/A 30.07 1018 7 11 0.01 0.25
1:09 pm 13:09 Cloudy with Light Rain 72 22.2 70 21.1 94 94 N N/A 30.06 1018 3 4 0.01 0.25
1:16 pm 13:16 Cloudy with Light Rain 72 22.2 70 21.1 94 94 N N/A 30.06 1018 5 8 0.01 0.25
1:53 pm 13:53 Cloudy with Light Rain 73 22.8 71 21.7 94 94 N N/A 30.05 1018 9 14 0.01 0.25
2:00 pm 14:00 Cloudy with Mist and Fog 73 22.8 70 21.1 90 90 N N/A 30.04 1017 6 10 0.01 0.25
2:16 pm 14:16 Cloudy with Rain 73 22.8 71 21.7 94 94 N N/A 30.04 1017 2 3 0.02 0.51
2:23 pm 14:23 Cloudy with Rain 73 22.8 71 21.7 94 94 N N/A 30.04 1017 2 2 0.04 1.02
2:46 pm 14:46 Cloudy with Heavy Rain 72 22.2 70 21.1 94 94 N N/A 30.04 1017 1 2 0.18 4.57
2:53 pm 14:53 Cloudy with Heavy Rain 71 21.7 70 21.1 96 96 undefined N/A 30.04 1017 1 2 0.25 6.35
2:55 pm 14:55 Cloudy with Heavy Rain 71 21.7 70 21.1 96 96 S 3 6 30.03 1017 1 1 0.03 0.76
3:03 pm 15:03 Cloudy with Heavy Rain 71 21.7 70 21.1 96 96 N N/A 30.03 1017 1 1 0.16 4.06
3:13 pm 15:13 Cloudy with Light Rain 72 22.2 70 21.1 94 94 ESE 5 7 30.03 1017 2 3 0.18 4.57
3:17 pm 15:17 Cloudy with Light Rain 72 22.2 71 21.7 97 97 VRB 5 7 30.03 1017 3 5 0.18 4.57
3:29 pm 15:29 Cloudy with Light Rain 71 21.7 70 21.1 96 96 N N/A 30.03 1017 2 3 0.19 4.83
3:39 pm 15:39 Cloudy with Light Rain 71 21.7 70 21.1 96 96 N N/A 30.03 1017 2 2 0.20 5.08
3:45 pm 15:45 Cloudy with Light Rain 72 22.2 71 21.7 97 97 N N/A 30.03 1017 2 3 0.20 5.08
3:53 pm 15:53 Cloudy with Light Rain 72 22.2 71 21.7 97 97 E 5 7 30.03 1017 3 4 0.21 5.33
3:57 pm 15:57 Cloudy with Light Rain 72 22.2 71 21.7 97 97 E 3 6 30.02 1017 2 3 0.01 0.25
4:05 pm 16:05 Cloudy with Heavy Rain 72 22.2 71 21.7 97 97 E 6 9 30.02 1017 1 2 0.06 1.52
4:20 pm 16:20 Cloudy with Heavy Rain 72 22.2 71 21.7 97 97 N N/A 30.02 1017 1 1 0.17 4.32
4:27 pm 16:27 Cloudy with Heavy Rain 72 22.2 71 21.7 97 97 N N/A 30.02 1017 1 1 0.26 6.60
4:39 pm 16:39 Cloudy with Light Rain 73 22.8 72 22.2 96 96 ESE 6 9 30.01 1016 2 3 0.28 7.11
4:45 pm 16:45 Cloudy with Light Rain 73 22.8 71 21.7 94 94 SE 3 6 30.01 1016 3 5 0.28 7.11
4:53 pm 16:53 Cloudy with Light Rain 74 23.3 72 22.2 94 94 SE 5 7 30.01 1016 6 10 0.28 7.11
5:01 pm 17:01 Cloudy with Mist and Fog 74 23.3 72 22.2 94 94 VRB 5 7 30.00 1016 5 8 0.00 0.00
5:10 pm 17:10 Cloudy 75 23.9 71 21.7 88 88 VRB 3 6 30.00 1016 10 16 0.00 0.00
5:42 pm 17:42 Cloudy 76 24.4 71 21.7 85 85 VRB 3 6 29.99 1015 10 16 0.00 0.00
5:53 pm 17:53 Cloudy 76 24.4 71 21.7 85 85 VRB 5 7 29.99 1016 10 16 0.00 0.00
6:02 pm 18:02 Cloudy with Light Rain 76 24.4 71 21.7 85 85 VRB 5 7 29.98 1015 10 16 0.00 0.00
6:33 pm 18:33 Cloudy 76 24.4 71 21.7 85 85 N N/A 29.97 1015 10 16 0.00 0.00
6:53 pm 18:53 Cloudy 75 23.9 71 21.7 88 88 N N/A 29.98 1015 10 16 0.00 0.00
7:53 pm 19:53 Cloudy 73 22.8 70 21.1 90 90 E 7 11 29.99 1016 10 16 N/A
8:37 pm 20:37 Cloudy 73 22.8 70 21.1 90 90 E 6 9 29.99 1016 10 16 N/A
8:53 pm 20:53 Cloudy 73 22.8 70 21.1 90 90 E 5 7 29.99 1016 10 16 N/A
9:19 pm 21:19 Cloudy 73 22.8 70 21.1 90 90 E 3 6 29.99 1016 10 16 N/A
9:53 pm 21:53 Mostly Cloudy 72 22.2 70 21.1 94 94 E 3 6 30.00 1016 10 16 N/A
10:53 pm 22:53 Cloudy 72 22.2 71 21.7 97 97 N N/A 30.01 1016 10 16 N/A
11:53 pm 23:53 Cloudy 71 21.7 70 21.1 96 96 N N/A 30.00 1016 10 16 N/A

Powered by AerisWeather